Flag for Cyprus Weather past 2 weeks in Nicosia, Cyprus

Now
86 °F

Sunny.


Feels Like: 85 °F
Forecast: 80 / 101 °F
Wind: 9 mph from West

Location: Ercan

Current Time: Aug 3, 2015 at 8:16:23 AM

Latest Report: Aug 3, 2015 at 7:20 AM


Visibility: 10 mi

Pressure: 29.77 "Hg

Humidity: 38%

Dew point: 57 °F

Location of NicosiaLocation

Historic Weather in Nicosia — Graph

°F

Nicosia temperature yesterday

Maximum temperature yesterday: 106 °F (at 2:50 PM)
Minimum temperature yesterday: 75 °F (at 4:20 AM)
Average temperature yesterday: 90 °F

Past Weeks' High & Low Weather Summary

 TemperatureHumidityPressure
High106 °F (Aug 2, 2:50 PM)94% (Jul 24, 5:20 AM)29.83 "Hg (Jul 24, 5:20 AM)
Low64 °F (Jul 24, 5:50 AM)11% (Jul 19, 1:50 PM)29.62 "Hg (Jul 20, 2:20 AM)
Average86 °F51%29.70 "Hg
* Reported Jul 19 6:20 AM — Aug 3 6:50 AM, Nicosia, Weather by CustomWeather, © 2015

Note: Actual official high and low records may vary slightly from our data, if they occured in-between our weather recording intervals... More about our weather records

Advertising

Nicosia weather history for previous 24 hours

 ConditionsComfort  
Time TempWeatherWind HumidityBarometerVisibility
6:50 AM
Mon, Aug 3
82 °FClear.12 mph51%29.74 "Hg10 mi
5:50 AM82 °FClear.13 mph48%29.74 "Hg10 mi
5:20 AM82 °FClear.14 mph51%29.74 "Hg10 mi
4:50 AM84 °FClear.14 mph48%29.74 "Hg10 mi
4:20 AM82 °FClear.12 mph55%29.74 "Hg10 mi
3:50 AM82 °FClear.10 mph58%29.77 "Hg10 mi
3:20 AM82 °FClear.12 mph62%29.77 "Hg10 mi
2:50 AM82 °FClear.13 mph66%29.77 "Hg10 mi
2:20 AM82 °FClear.10 mph70%29.77 "Hg10 mi
1:50 AM82 °FClear.12 mph70%29.77 "Hg10 mi
1:20 AM84 °FClear.14 mph66%29.77 "Hg10 mi
12:50 AM84 °FClear.16 mph66%29.77 "Hg10 mi
12:20 AM84 °FClear.15 mph62%29.77 "Hg10 mi
11:50 PM
Sun, Aug 2
84 °FClear.13 mph66%29.80 "Hg10 mi
11:20 PM84 °FClear.12 mph66%29.80 "Hg10 mi
10:50 PM84 °FClear.13 mph66%29.80 "Hg10 mi
10:20 PM86 °FClear.14 mph62%29.80 "Hg10 mi
9:50 PM86 °FClear.15 mph59%29.80 "Hg10 mi
9:20 PM88 °FClear.15 mph55%29.80 "Hg10 mi
8:50 PM88 °FClear.13 mph59%29.77 "Hg10 mi
8:20 PM90 °FSunny.10 mph55%29.77 "Hg10 mi
7:50 PM93 °FSunny.10 mph49%29.77 "Hg10 mi
7:20 PM97 °FSunny.8 mph39%29.77 "Hg10 mi
6:50 PM99 °FSunny.7 mph35%29.77 "Hg10 mi
6:20 PM100 °FSunny.9 mph33%29.77 "Hg10 mi
5:50 PM100 °FSunny.13 mph33%29.77 "Hg10 mi
5:20 PM102 °FPassing clouds.8 mph31%29.77 "HgN/A
4:50 PM106 °FPassing clouds.10 mph13%29.77 "HgN/A
4:20 PM106 °FPassing clouds.8 mph14%29.77 "HgN/A
3:50 PM106 °FPassing clouds.9 mph14%29.77 "HgN/A
3:20 PM106 °FPassing clouds.12 mph17%29.80 "HgN/A
2:50 PM106 °FPassing clouds.10 mph17%29.80 "HgN/A
2:20 PM104 °FPassing clouds.10 mph20%29.80 "HgN/A
1:50 PM104 °FPassing clouds.10 mph20%29.80 "HgN/A
1:20 PM104 °FPassing clouds.10 mph19%29.80 "HgN/A
12:50 PM104 °FPassing clouds.13 mph20%29.80 "HgN/A
12:20 PM102 °FPassing clouds.9 mph23%29.80 "HgN/A
11:50 AM99 °FSunny.6 mph33%29.80 "Hg10 mi
11:20 AM97 °FSunny.5 mph32%29.80 "Hg10 mi
10:50 AM95 °FSunny.6 mph34%29.83 "Hg10 mi
10:20 AM95 °FSunny.3 mph34%29.83 "Hg10 mi
9:50 AM93 °FSunny.5 mph39%29.80 "Hg10 mi
9:20 AM91 °FSunny.7 mph41%29.80 "Hg10 mi
8:50 AM88 °FSunny.9 mph46%29.80 "Hg10 mi
8:20 AM86 °FPassing clouds.10 mph52%29.80 "HgN/A
Weather by CustomWeather, © 2015

See weather overviewHow to use our weather pages